| time (UTC) | temp F | wind direction | speed knots | gust knots | rain 1hr in | rain 24hr in | rain mn in | humidity % | barometer mb |
| 20260509034101 | 55 | 220 | 3.5 | 6.1 | 0.00 | 0.25 | 0.25 | 92 | 1009.4 |
| 20260509033558 | 55 | 222 | 5.2 | 6.1 | 0.00 | 0.25 | 0.25 | 92 | 1009.7 |
| 20260509033055 | 55 | 218 | 3.5 | 5.2 | 0.00 | 0.25 | 0.25 | 92 | 1009.6 |
| 20260509032552 | 55 | 216 | 5.2 | 7.0 | 0.00 | 0.25 | 0.25 | 92 | 1009.5 |
| 20260509032049 | 55 | 232 | 6.1 | 7.0 | 0.00 | 0.25 | 0.25 | 92 | 1009.5 |
| 20260509031547 | 55 | 218 | 5.2 | 7.0 | 0.00 | 0.25 | 0.25 | 92 | 1009.7 |
| 20260509031044 | 55 | 217 | 5.2 | 7.8 | 0.00 | 0.25 | 0.25 | 92 | 1009.5 |
| 20260509030542 | 55 | 204 | 5.2 | 7.0 | 0.00 | 0.25 | 0.25 | 92 | 1009.7 |
| 20260509030038 | 55 | 219 | 6.1 | 7.0 | 0.00 | 0.25 | 0.25 | 92 | 1009.6 |
| 20260509025535 | 55 | 232 | 4.3 | 5.2 | 0.00 | 0.25 | 0.25 | 92 | 1009.9 |
| 20260509025030 | 55 | 200 | 3.5 | 5.2 | 0.00 | 0.25 | 0.25 | 92 | 1009.9 |
| 20260509024526 | 55 | 281 | 2.6 | 3.5 | 0.00 | 0.25 | 0.25 | 92 | 1009.7 |
| 20260509024023 | 55 | 211 | 3.5 | 6.1 | 0.00 | 0.25 | 0.25 | 92 | 1009.7 |
| 20260509023521 | 54 | 209 | 5.2 | 6.1 | 0.00 | 0.25 | 0.25 | 92 | 1009.8 |
| 20260509023017 | 54 | 216 | 3.5 | 6.1 | 0.00 | 0.25 | 0.25 | 92 | 1009.8 |
| 20260509022514 | 54 | 258 | 2.6 | 3.5 | 0.00 | 0.25 | 0.25 | 92 | 1009.7 |
| 20260509022012 | 55 | 211 | 3.5 | 6.1 | 0.00 | 0.25 | 0.25 | 92 | 1009.7 |
| 20260509021508 | 55 | 211 | 4.3 | 6.1 | 0.00 | 0.25 | 0.25 | 91 | 1009.6 |
| 20260509021005 | 55 | 215 | 4.3 | 7.0 | 0.00 | 0.25 | 0.25 | 91 | 1009.7 |
| 20260509020504 | 55 | 214 | 5.2 | 7.0 | 0.00 | 0.25 | 0.25 | 91 | 1009.7 |
| 20260509020000 | 55 | 210 | 5.2 | 6.1 | 0.00 | 0.25 | 0.25 | 91 | 1009.9 |
| 20260509015459 | 55 | 205 | 5.2 | 7.0 | 0.00 | 0.25 | 0.25 | 92 | 1009.7 |
| 20260509014955 | 55 | 234 | 5.2 | 7.0 | 0.00 | 0.25 | 0.25 | 92 | 1009.7 |
| 20260509014452 | 55 | 216 | 5.2 | 7.0 | 0.00 | 0.25 | 0.25 | 92 | 1009.6 |
| 20260509013948 | 55 | 219 | 5.2 | 7.0 | 0.00 | 0.25 | 0.25 | 92 | 1009.8 |
| 20260509013446 | 55 | 217 | 5.2 | 7.8 | 0.00 | 0.25 | 0.25 | 92 | 1009.5 |
| 20260509012941 | 54 | 207 | 7.0 | 7.8 | 0.00 | 0.25 | 0.25 | 92 | 1009.5 |
| 20260509012438 | 55 | 218 | 5.2 | 7.8 | 0.00 | 0.25 | 0.25 | 92 | 1009.5 |
| 20260509011935 | 55 | 208 | 5.2 | 7.0 | 0.00 | 0.25 | 0.25 | 92 | 1009.6 |
| 20260509011433 | 55 | 203 | 7.0 | 7.0 | 0.00 | 0.25 | 0.25 | 92 | 1009.5 |
| 20260509010930 | 55 | 209 | 7.0 | 7.8 | 0.00 | 0.25 | 0.25 | 91 | 1009.5 |
| 20260509010428 | 55 | 215 | 6.1 | 7.8 | 0.00 | 0.25 | 0.25 | 91 | 1009.6 |
| 20260509005925 | 55 | 209 | 6.1 | 7.8 | 0.00 | 0.25 | 0.25 | 91 | 1009.6 |
| 20260509005423 | 55 | 206 | 7.0 | 8.7 | 0.00 | 0.25 | 0.25 | 91 | 1009.6 |
| 20260509004922 | 55 | 208 | 5.2 | 7.0 | 0.00 | 0.25 | 0.25 | 91 | 1009.7 |
| 20260509004419 | 55 | 213 | 6.1 | 7.8 | 0.00 | 0.25 | 0.25 | 91 | 1009.5 |
| 20260509003917 | 55 | 202 | 6.1 | 8.7 | 0.00 | 0.25 | 0.25 | 91 | 1009.6 |
| 20260509003414 | 55 | 196 | 5.2 | 7.8 | 0.00 | 0.25 | 0.25 | 91 | 1009.4 |
| 20260509002911 | 55 | 199 | 6.1 | 7.0 | 0.00 | 0.25 | 0.25 | 91 | 1009.7 |
| 20260509002409 | 55 | 207 | 6.1 | 7.0 | 0.00 | 0.25 | 0.25 | 90 | 1009.7 |
| 20260509001906 | 55 | 210 | 5.2 | 7.0 | 0.00 | 0.25 | 0.25 | 91 | 1009.6 |
| 20260509001402 | 55 | 213 | 5.2 | 7.0 | 0.00 | 0.25 | 0.25 | 90 | 1009.4 |
| 20260509000859 | 55 | 216 | 6.1 | 7.8 | 0.00 | 0.25 | 0.25 | 90 | 1009.7 |
| 20260509000357 | 55 | 222 | 4.3 | 7.8 | 0.00 | 0.25 | 0.25 | 90 | 1009.7 |
| 20260508235853 | 55 | 213 | 3.5 | 6.1 | 0.00 | 0.25 | 0.25 | 90 | 1009.7 |
| 20260508235351 | 55 | 234 | 3.5 | 5.2 | 0.00 | 0.25 | 0.25 | 90 | 1009.8 |
| 20260508234848 | 55 | 196 | 3.5 | 5.2 | 0.00 | 0.25 | 0.25 | 90 | 1009.8 |
| 20260508234344 | 55 | 243 | 4.3 | 7.8 | 0.00 | 0.25 | 0.25 | 90 | 1009.9 |
| 20260508233843 | 55 | 214 | 3.5 | 7.0 | 0.00 | 0.25 | 0.25 | 91 | 1009.8 |
| 20260508233342 | 55 | 219 | 4.3 | 5.2 | 0.00 | 0.25 | 0.25 | 91 | 1009.8 |
| 20260508232838 | 55 | 208 | 4.3 | 6.1 | 0.00 | 0.25 | 0.25 | 90 | 1009.7 |
| 20260508232334 | 55 | 217 | 5.2 | 6.1 | 0.00 | 0.25 | 0.25 | 90 | 1009.6 |
| 20260508231833 | 56 | 217 | 3.5 | 7.0 | 0.00 | 0.25 | 0.25 | 90 | 1009.8 |
| 20260508231329 | 56 | 223 | 5.2 | 7.0 | 0.00 | 0.25 | 0.25 | 89 | 1009.6 |
| 20260508230826 | 56 | 226 | 4.3 | 6.1 | 0.00 | 0.25 | 0.25 | 90 | 1009.8 |
| 20260508230322 | 56 | 225 | 3.5 | 6.1 | 0.00 | 0.25 | 0.25 | 89 | 1009.8 |
| 20260508225820 | 56 | 215 | 6.1 | 7.0 | 0.00 | 0.25 | 0.25 | 90 | 1009.6 |
| 20260508225316 | 56 | 246 | 3.5 | 6.1 | 0.00 | 0.25 | 0.25 | 89 | 1009.8 |
| 20260508224814 | 55 | 203 | 4.3 | 6.1 | 0.00 | 0.25 | 0.25 | 90 | 1009.7 |
| 20260508224311 | 55 | 214 | 4.3 | 6.1 | 0.00 | 0.25 | 0.25 | 89 | 1010.0 |
| 20260508223809 | 56 | 242 | 5.2 | 6.1 | 0.00 | 0.25 | 0.25 | 89 | 1009.7 |
| 20260508223306 | 56 | 242 | 4.3 | 7.0 | 0.00 | 0.25 | 0.25 | 88 | 1009.8 |
| 20260508222804 | 56 | 215 | 4.3 | 7.8 | 0.00 | 0.25 | 0.25 | 89 | 1009.7 |
| 20260508222300 | 56 | 217 | 7.0 | 8.7 | 0.05 | 0.25 | 0.25 | 89 | 1009.8 |
| 20260508221757 | 56 | 236 | 3.5 | 7.8 | 0.05 | 0.25 | 0.25 | 89 | 1009.9 |
| 20260508221253 | 56 | 218 | 4.3 | 7.0 | 0.00 | 0.24 | 0.24 | 90 | 1010.1 |
| 20260508220749 | 55 | 219 | 8.7 | 8.7 | 0.00 | 0.24 | 0.24 | 90 | 1009.9 |
| 20260508220246 | 55 | 209 | 4.3 | 6.1 | 0.07 | 0.24 | 0.24 | 90 | 1009.9 |
| 20260508215742 | 55 | 246 | 2.6 | 6.1 | 0.07 | 0.24 | 0.24 | 89 | 1009.7 |
| 20260508215239 | 56 | 240 | 3.5 | 7.8 | 0.00 | 0.23 | 0.23 | 88 | 1010.1 |
| 20260508214736 | 56 | 244 | 5.2 | 7.0 | 0.05 | 0.23 | 0.23 | 88 | 1010.0 |
| 20260508214233 | 56 | 242 | 4.3 | 6.1 | 0.05 | 0.23 | 0.23 | 88 | 1010.0 |
| 20260508213730 | 56 | 235 | 5.2 | 6.1 | 0.00 | 0.22 | 0.22 | 88 | 1010.2 |
| 20260508213226 | 56 | 251 | 5.2 | 7.0 | 0.00 | 0.22 | 0.22 | 88 | 1009.9 |
| 20260508212723 | 56 | 247 | 3.5 | 5.2 | 0.07 | 0.22 | 0.22 | 88 | 1010.0 |
| 20260508212219 | 56 | 258 | 2.6 | 5.2 | 0.12 | 0.22 | 0.22 | 90 | 1010.1 |
| 20260508211715 | 56 | 237 | 3.5 | 5.2 | 0.05 | 0.21 | 0.21 | 90 | 1010.5 |
| 20260508211211 | 56 | 253 | 4.3 | 7.0 | 0.07 | 0.20 | 0.20 | 89 | 1010.5 |
| 20260508210709 | 56 | 279 | 4.3 | 7.0 | 0.00 | 0.19 | 0.19 | 88 | 1010.5 |
| 20260508210206 | 56 | 253 | 5.2 | 7.8 | 0.05 | 0.19 | 0.19 | 88 | 1010.4 |
| 20260508205702 | 56 | 250 | 2.6 | 7.0 | 0.05 | 0.19 | 0.19 | 88 | 1010.3 |
| 20260508205159 | 56 | 261 | 3.5 | 6.1 | 0.07 | 0.18 | 0.18 | 88 | 1010.6 |
| 20260508204655 | 56 | 259 | 6.1 | 7.0 | 0.07 | 0.18 | 0.18 | 89 | 1010.5 |
| 20260508204151 | 56 | 272 | 3.5 | 7.0 | 0.05 | 0.17 | 0.17 | 89 | 1010.5 |
| 20260508203647 | 56 | 278 | 4.3 | 7.0 | 0.07 | 0.16 | 0.16 | 88 | 1010.7 |
| 20260508203143 | 56 | 277 | 5.2 | 7.0 | 0.12 | 0.16 | 0.16 | 87 | 1011.0 |
| 20260508202640 | 56 | 279 | 3.5 | 7.8 | 0.12 | 0.15 | 0.15 | 87 | 1010.7 |
| 20260508202137 | 56 | 250 | 3.5 | 5.2 | 0.19 | 0.14 | 0.14 | 88 | 1010.6 |
| 20260508201634 | 57 | 286 | 3.5 | 5.2 | 0.19 | 0.13 | 0.13 | 88 | 1010.6 |
| 20260508201130 | 57 | 278 | 3.5 | 3.5 | 0.12 | 0.11 | 0.11 | 87 | 1010.7 |
| 20260508200627 | 57 | 251 | 3.5 | 3.5 | 0.12 | 0.10 | 0.10 | 86 | 1010.7 |
| 20260508200123 | 57 | 272 | 3.5 | 5.2 | 0.12 | 0.09 | 0.09 | 84 | 1010.6 |
| 20260508195620 | 57 | 294 | 4.3 | 7.0 | 0.05 | 0.08 | 0.08 | 84 | 1010.6 |
| 20260508195117 | 57 | 287 | 5.2 | 6.1 | 0.07 | 0.07 | 0.07 | 84 | 1010.8 |
| 20260508194613 | 57 | 275 | 7.0 | 7.8 | 0.07 | 0.07 | 0.07 | 82 | 1010.7 |
| 20260508194111 | 57 | 272 | 5.2 | 7.8 | 0.00 | 0.06 | 0.06 | 82 | 1010.7 |
| 20260508193607 | 57 | 268 | 7.0 | 8.7 | 0.05 | 0.06 | 0.06 | 81 | 1010.7 |
| 20260508193104 | 58 | 270 | 9.6 | 14.8 | 0.17 | 0.06 | 0.06 | 79 | 1010.8 |
| 20260508192600 | 59 | 289 | 11.3 | 19.1 | 0.12 | 0.05 | 0.05 | 75 | 1011.0 |
| 20260508192058 | 59 | 265 | 8.7 | 11.3 | 0.00 | 0.03 | 0.03 | 74 | 1010.8 |
| 20260508191554 | 60 | 252 | 9.6 | 11.3 | 0.00 | 0.03 | 0.03 | 73 | 1010.8 |
| 20260508191051 | 60 | 269 | 10.4 | 16.5 | 0.00 | 0.03 | 0.03 | 70 | 1010.7 |
| 20260508190548 | 59 | 265 | 8.7 | 11.3 | 0.07 | 0.03 | 0.03 | 71 | 1010.6 |
| 20260508190044 | 59 | 293 | 10.4 | 12.2 | 0.12 | 0.03 | 0.03 | 71 | 1010.6 |
| 20260508185542 | 61 | 251 | 16.5 | 21.7 | 0.05 | 0.02 | 0.02 | 67 | 1010.8 |
| 20260508185039 | 63 | 263 | 13.0 | 14.8 | 0.00 | 0.01 | 0.01 | 56 | 1010.5 |
| 20260508184537 | 64 | 275 | 11.3 | 12.2 | 0.00 | 0.01 | 0.01 | 54 | 1010.6 |
| 20260508184033 | 64 | 256 | 13.0 | 16.5 | 0.00 | 0.01 | 0.01 | 52 | 1010.5 |
| 20260508183530 | 64 | 247 | 11.3 | 13.9 | 0.00 | 0.01 | 0.01 | 53 | 1010.4 |
| 20260508183026 | 64 | 252 | 13.0 | 16.5 | 0.00 | 0.01 | 0.01 | 51 | 1010.6 |
| 20260508182523 | 65 | 280 | 9.6 | 9.6 | 0.00 | 0.01 | 0.01 | 53 | 1010.5 |
| 20260508182019 | 65 | 264 | 8.7 | 13.9 | 0.00 | 0.01 | 0.01 | 53 | 1010.6 |
| 20260508181514 | 66 | 281 | 13.9 | 18.2 | 0.00 | 0.01 | 0.01 | 51 | 1010.6 |
| 20260508181013 | 65 | 245 | 7.8 | 13.0 | 0.00 | 0.01 | 0.01 | 52 | 1010.6 |
| 20260508180509 | 66 | 247 | 10.4 | 13.0 | 0.00 | 0.01 | 0.01 | 51 | 1010.6 |
| 20260508180005 | 66 | 256 | 7.8 | 13.0 | 0.00 | 0.01 | 0.01 | 52 | 1010.7 |
| 20260508175501 | 66 | 281 | 10.4 | 13.0 | 0.00 | 0.01 | 0.01 | 51 | 1010.9 |
| 20260508174959 | 65 | 260 | 8.7 | 12.2 | 0.00 | 0.01 | 0.01 | 53 | 1010.9 |
| 20260508174457 | 65 | 216 | 9.6 | 13.0 | 0.00 | 0.01 | 0.01 | 52 | 1011.3 |
| 20260508173953 | 65 | 252 | 7.8 | 14.8 | 0.00 | 0.01 | 0.01 | 52 | 1011.1 |
| 20260508173450 | 64 | 248 | 10.4 | 12.2 | 0.00 | 0.01 | 0.01 | 52 | 1011.4 |
| 20260508172946 | 63 | 259 | 7.8 | 12.2 | 0.00 | 0.01 | 0.01 | 54 | 1011.5 |
| 20260508172444 | 63 | 253 | 7.0 | 11.3 | 0.00 | 0.01 | 0.01 | 55 | 1011.4 |
| 20260508171940 | 63 | 226 | 6.1 | 11.3 | 0.00 | 0.01 | 0.01 | 55 | 1011.8 |
| 20260508171436 | 62 | 245 | 7.0 | 11.3 | 0.00 | 0.01 | 0.01 | 56 | 1011.9 |
| 20260508170933 | 62 | 260 | 7.0 | 8.7 | 0.00 | 0.01 | 0.01 | 56 | 1011.9 |
| 20260508170431 | 63 | 264 | 7.8 | 9.6 | 0.00 | 0.01 | 0.01 | 56 | 1012.2 |
| 20260508165927 | 62 | 261 | 7.8 | 13.9 | 0.00 | 0.01 | 0.01 | 55 | 1012.3 |
| 20260508165425 | 62 | 240 | 7.8 | 12.2 | 0.00 | 0.01 | 0.01 | 55 | 1012.4 |
| 20260508164920 | 62 | 225 | 7.0 | 9.6 | 0.00 | 0.01 | 0.01 | 57 | 1012.6 |
| 20260508164418 | 62 | 240 | 7.0 | 9.6 | 0.00 | 0.01 | 0.01 | 56 | 1012.5 |
| 20260508163915 | 61 | 273 | 6.1 | 11.3 | 0.00 | 0.01 | 0.01 | 56 | 1012.8 |
| 20260508163413 | 61 | 279 | 6.1 | 7.8 | 0.00 | 0.01 | 0.01 | 58 | 1012.6 |
| 20260508162908 | 61 | 210 | 8.7 | 9.6 | 0.00 | 0.01 | 0.01 | 55 | 1012.7 |
| 20260508162406 | 61 | 255 | 4.3 | 11.3 | 0.00 | 0.01 | 0.01 | 57 | 1012.7 |
| 20260508161902 | 61 | 212 | 10.4 | 13.0 | 0.00 | 0.01 | 0.01 | 59 | 1012.9 |
| 20260508161400 | 61 | 205 | 6.1 | 8.7 | 0.00 | 0.01 | 0.01 | 58 | 1012.9 |
| 20260508160857 | 60 | 224 | 6.1 | 11.3 | 0.00 | 0.01 | 0.01 | 59 | 1012.9 |
| 20260508160356 | 60 | 228 | 7.0 | 9.6 | 0.00 | 0.01 | 0.01 | 61 | 1013.2 |
| 20260508155851 | 60 | 276 | 5.2 | 8.7 | 0.00 | 0.01 | 0.01 | 59 | 1013.2 |
| 20260508155349 | 59 | 220 | 6.1 | 9.6 | 0.00 | 0.01 | 0.01 | 62 | 1013.4 |
| 20260508154846 | 60 | 219 | 9.6 | 11.3 | 0.00 | 0.01 | 0.01 | 58 | 1013.5 |
| 20260508154343 | 59 | 273 | 7.8 | 9.6 | 0.00 | 0.01 | 0.01 | 58 | 1013.6 |
| 20260508153839 | 58 | 287 | 6.1 | 7.0 | 0.00 | 0.01 | 0.01 | 61 | 1014.0 |
| 20260508153337 | 58 | 269 | 5.2 | 7.0 | 0.00 | 0.01 | 0.01 | 59 | 1013.5 |
| 20260508152833 | 58 | 236 | 6.1 | 8.7 | 0.00 | 0.01 | 0.01 | 60 | 1013.8 |
| 20260508152329 | 57 | 223 | 9.6 | 12.2 | 0.00 | 0.01 | 0.01 | 61 | 1013.8 |
| 20260508151826 | 57 | 229 | 6.1 | 8.7 | 0.00 | 0.01 | 0.01 | 61 | 1013.9 |
| 20260508151323 | 57 | 271 | 7.8 | 7.8 | 0.00 | 0.01 | 0.01 | 61 | 1013.9 |
| 20260508150819 | 57 | 255 | 7.0 | 9.6 | 0.00 | 0.01 | 0.01 | 61 | 1013.8 |
| 20260508150316 | 57 | 246 | 3.5 | 7.8 | 0.00 | 0.01 | 0.01 | 65 | 1014.1 |
| 20260508145812 | 57 | 221 | 7.8 | 7.8 | 0.00 | 0.01 | 0.01 | 62 | 1014.0 |
| 20260508145308 | 57 | 217 | 8.7 | 8.7 | 0.00 | 0.01 | 0.01 | 61 | 1014.1 |
| 20260508144806 | 57 | 250 | 5.2 | 7.8 | 0.00 | 0.01 | 0.01 | 64 | 1014.2 |
| 20260508144303 | 56 | 257 | 3.5 | 6.1 | 0.00 | 0.01 | 0.01 | 67 | 1014.3 |
| 20260508143801 | 55 | 271 | 5.2 | 12.2 | 0.00 | 0.01 | 0.01 | 64 | 1014.1 |
| 20260508143258 | 55 | 260 | 5.2 | 7.0 | 0.00 | 0.01 | 0.01 | 66 | 1014.2 |
| 20260508142754 | 55 | 254 | 5.2 | 7.8 | 0.00 | 0.01 | 0.01 | 66 | 1014.2 |
| 20260508142251 | 54 | 261 | 3.5 | 7.0 | 0.00 | 0.01 | 0.01 | 69 | 1014.3 |
| 20260508141747 | 54 | 285 | 7.0 | 7.8 | 0.00 | 0.01 | 0.01 | 66 | 1014.5 |
| 20260508141245 | 54 | 263 | 6.1 | 7.8 | 0.00 | 0.01 | 0.01 | 67 | 1014.6 |
| 20260508140742 | 54 | 275 | 5.2 | 7.0 | 0.00 | 0.01 | 0.01 | 67 | 1014.5 |
| 20260508140239 | 54 | 265 | 3.5 | 6.1 | 0.00 | 0.01 | 0.01 | 68 | 1014.4 |
| 20260508135735 | 55 | 252 | 3.5 | 7.0 | 0.00 | 0.01 | 0.01 | 68 | 1014.3 |
| 20260508135231 | 55 | 241 | 4.3 | 6.1 | 0.00 | 0.01 | 0.01 | 67 | 1014.2 |
| 20260508134726 | 55 | 221 | 5.2 | 7.0 | 0.00 | 0.01 | 0.01 | 69 | 1014.1 |
| 20260508134224 | 54 | 231 | 6.1 | 7.0 | 0.00 | 0.01 | 0.01 | 67 | 1014.3 |
| 20260508133721 | 53 | 243 | 3.5 | 8.7 | 0.00 | 0.01 | 0.01 | 71 | 1014.1 |
| 20260508133219 | 53 | 212 | 5.2 | 7.8 | 0.00 | 0.01 | 0.01 | 72 | 1013.8 |
| 20260508132716 | 52 | 220 | 4.3 | 7.0 | 0.00 | 0.01 | 0.01 | 74 | 1014.2 |
| 20260508132213 | 52 | 219 | 4.3 | 5.2 | 0.00 | 0.01 | 0.01 | 77 | 1014.2 |
| 20260508131708 | 51 | 235 | 2.6 | 3.5 | 0.00 | 0.01 | 0.01 | 76 | 1014.3 |
| 20260508131205 | 51 | 253 | 1.7 | 1.7 | 0.00 | 0.01 | 0.01 | 79 | 1014.3 |
| 20260508130702 | 50 | 221 | 2.6 | 3.5 | 0.00 | 0.01 | 0.01 | 78 | 1014.1 |
| 20260508130159 | 50 | 218 | 2.6 | 2.6 | 0.00 | 0.01 | 0.01 | 78 | 1014.4 |
| 20260508125654 | 50 | 242 | 0.9 | 1.7 | 0.00 | 0.01 | 0.01 | 77 | 1014.3 |
| 20260508125151 | 50 | 269 | 1.7 | 2.6 | 0.00 | 0.01 | 0.01 | 76 | 1014.3 |
| 20260508124650 | 50 | 264 | 1.7 | 2.6 | 0.00 | 0.01 | 0.01 | 77 | 1014.3 |
| 20260508124146 | 50 | 246 | 3.5 | 5.2 | 0.00 | 0.01 | 0.01 | 76 | 1014.4 |
| 20260508123645 | 50 | 238 | 3.5 | 5.2 | 0.00 | 0.01 | 0.01 | 76 | 1014.2 |
| 20260508123142 | 50 | 253 | 2.6 | 5.2 | 0.00 | 0.01 | 0.01 | 78 | 1014.1 |
| 20260508122638 | 50 | 246 | 5.2 | 6.1 | 0.07 | 0.01 | 0.01 | 77 | 1014.3 |
| 20260508122135 | 50 | 245 | 6.1 | 7.8 | 0.07 | 0.01 | 0.01 | 78 | 1014.1 |
| 20260508121633 | 49 | 225 | 6.1 | 7.8 | 0.00 | 0.00 | 0.00 | 79 | 1014.3 |
| 20260508121131 | 49 | 207 | 7.0 | 9.6 | 0.00 | 0.00 | 0.00 | 79 | 1014.1 |
| 20260508120628 | 50 | 230 | 5.2 | 9.6 | 0.00 | 0.00 | 0.00 | 77 | 1014.1 |
| 20260508120126 | 50 | 200 | 4.3 | 9.6 | 0.00 | 0.00 | 0.00 | 78 | 1014.4 |
| 20260508115624 | 50 | 244 | 7.8 | 11.3 | 0.00 | 0.00 | 0.00 | 75 | 1014.3 |
| 20260508115120 | 51 | 233 | 7.8 | 9.6 | 0.00 | 0.00 | 0.00 | 74 | 1014.2 |
| 20260508114618 | 51 | 235 | 7.8 | 12.2 | 0.00 | 0.00 | 0.00 | 73 | 1014.2 |
| 20260508114113 | 51 | 237 | 9.6 | 13.0 | 0.00 | 0.00 | 0.00 | 71 | 1014.1 |
| 20260508113611 | 51 | 236 | 7.8 | 12.2 | 0.00 | 0.00 | 0.00 | 70 | 1013.7 |
| 20260508113109 | 51 | 204 | 6.1 | 12.2 | 0.00 | 0.00 | 0.00 | 70 | 1014.0 |
| 20260508112605 | 52 | 232 | 7.8 | 8.7 | 0.00 | 0.00 | 0.00 | 67 | 1014.2 |
| 20260508112102 | 52 | 253 | 6.1 | 11.3 | 0.00 | 0.00 | 0.00 | 66 | 1014.2 |
| 20260508111559 | 52 | 255 | 8.7 | 11.3 | 0.00 | 0.00 | 0.00 | 64 | 1013.8 |
| 20260508111056 | 52 | 267 | 6.1 | 12.2 | 0.00 | 0.00 | 0.00 | 64 | 1014.0 |
| 20260508110554 | 52 | 254 | 6.1 | 9.6 | 0.00 | 0.00 | 0.00 | 65 | 1014.0 |
| 20260508110049 | 52 | 243 | 9.6 | 11.3 | 0.00 | 0.00 | 0.00 | 65 | 1013.8 |
| 20260508105544 | 52 | 267 | 7.0 | 8.7 | 0.00 | 0.00 | 0.00 | 66 | 1013.8 |
| 20260508105042 | 52 | 243 | 8.7 | 8.7 | 0.00 | 0.00 | 0.00 | 66 | 1013.9 |
| 20260508104540 | 52 | 246 | 5.2 | 8.7 | 0.00 | 0.00 | 0.00 | 67 | 1013.7 |
| 20260508104036 | 52 | 257 | 7.0 | 9.6 | 0.00 | 0.00 | 0.00 | 66 | 1013.7 |
| 20260508103533 | 52 | 235 | 4.3 | 11.3 | 0.00 | 0.00 | 0.00 | 66 | 1013.7 |
| 20260508103031 | 52 | 251 | 6.1 | 7.8 | 0.00 | 0.00 | 0.00 | 67 | 1013.7 |
| 20260508102528 | 52 | 268 | 5.2 | 8.7 | 0.00 | 0.00 | 0.00 | 66 | 1013.6 |
| 20260508102026 | 52 | 263 | 7.8 | 11.3 | 0.00 | 0.00 | 0.00 | 66 | 1013.7 |
| 20260508101523 | 52 | 268 | 5.2 | 8.7 | 0.00 | 0.00 | 0.00 | 67 | 1013.6 |
| 20260508101020 | 51 | 270 | 7.8 | 9.6 | 0.00 | 0.00 | 0.00 | 66 | 1013.8 |
| 20260508100518 | 51 | 273 | 5.2 | 8.7 | 0.00 | 0.00 | 0.00 | 67 | 1013.6 |
| 20260508100015 | 51 | 271 | 5.2 | 9.6 | 0.00 | 0.00 | 0.00 | 68 | 1013.8 |
| 20260508095512 | 51 | 266 | 5.2 | 8.7 | 0.00 | 0.00 | 0.00 | 68 | 1014.0 |
| 20260508095008 | 51 | 261 | 7.8 | 9.6 | 0.00 | 0.00 | 0.00 | 68 | 1014.1 |
| 20260508094506 | 51 | 262 | 5.2 | 9.6 | 0.00 | 0.00 | 0.00 | 69 | 1014.0 |
| 20260508094003 | 50 | 259 | 5.2 | 7.8 | 0.00 | 0.00 | 0.00 | 70 | 1014.1 |
| 20260508093459 | 50 | 270 | 7.0 | 9.6 | 0.00 | 0.00 | 0.00 | 70 | 1013.9 |
| 20260508092957 | 50 | 244 | 6.1 | 7.8 | 0.00 | 0.00 | 0.00 | 69 | 1013.8 |
| 20260508092454 | 50 | 252 | 5.2 | 7.8 | 0.00 | 0.00 | 0.00 | 70 | 1014.0 |
| 20260508091953 | 50 | 257 | 4.3 | 6.1 | 0.00 | 0.00 | 0.00 | 69 | 1013.9 |
| 20260508091450 | 50 | 244 | 4.3 | 8.7 | 0.00 | 0.00 | 0.00 | 69 | 1013.9 |
| 20260508090947 | 51 | 229 | 4.3 | 8.7 | 0.00 | 0.00 | 0.00 | 69 | 1013.9 |
| 20260508090445 | 51 | 245 | 5.2 | 7.8 | 0.00 | 0.00 | 0.00 | 68 | 1013.8 |
| 20260508085941 | 51 | 238 | 6.1 | 8.7 | 0.00 | 0.00 | 0.00 | 68 | 1014.1 |
| 20260508085438 | 50 | 248 | 7.8 | 11.3 | 0.00 | 0.00 | 0.00 | 67 | 1013.7 |
| 20260508084935 | 51 | 249 | 4.3 | 7.8 | 0.00 | 0.00 | 0.00 | 67 | 1013.7 |
| 20260508084431 | 51 | 243 | 7.0 | 7.8 | 0.00 | 0.00 | 0.00 | 66 | 1013.8 |
| 20260508083929 | 51 | 246 | 6.1 | 12.2 | 0.00 | 0.00 | 0.00 | 65 | 1013.9 |
| 20260508083426 | 51 | 232 | 7.0 | 8.7 | 0.00 | 0.00 | 0.00 | 65 | 1013.9 |
| 20260508082926 | 51 | 261 | 8.7 | 12.2 | 0.00 | 0.00 | 0.00 | 65 | 1013.8 |
| 20260508082423 | 51 | 245 | 7.0 | 8.7 | 0.00 | 0.00 | 0.00 | 65 | 1013.9 |
| 20260508081921 | 51 | 270 | 7.0 | 8.7 | 0.00 | 0.00 | 0.00 | 65 | 1013.9 |
| 20260508081418 | 50 | 270 | 8.7 | 9.6 | 0.00 | 0.00 | 0.00 | 65 | 1013.9 |
| 20260508080914 | 51 | 251 | 5.2 | 7.8 | 0.00 | 0.00 | 0.00 | 65 | 1013.7 |
| 20260508080413 | 50 | 243 | 6.1 | 8.7 | 0.00 | 0.00 | 0.00 | 66 | 1013.9 |
| 20260508075909 | 50 | 232 | 7.0 | 9.6 | 0.00 | 0.00 | 0.00 | 66 | 1014.2 |
| 20260508075406 | 50 | 234 | 7.0 | 8.7 | 0.00 | 0.00 | 0.00 | 67 | 1013.9 |
| 20260508074904 | 50 | 250 | 7.0 | 8.7 | 0.00 | 0.00 | 0.00 | 69 | 1014.1 |
| 20260508074401 | 49 | 247 | 5.2 | 7.8 | 0.00 | 0.00 | 0.00 | 70 | 1014.0 |
| 20260508073857 | 49 | 244 | 5.2 | 8.7 | 0.00 | 0.00 | 0.00 | 71 | 1014.0 |
| 20260508073356 | 48 | 244 | 6.1 | 9.6 | 0.00 | 0.00 | 0.00 | 72 | 1014.0 |
| 20260508072852 | 48 | 214 | 4.3 | 6.1 | 0.00 | 0.00 | 0.00 | 73 | 1014.0 |
| 20260508072348 | 48 | 206 | 3.5 | 6.1 | 0.00 | 0.00 | 0.00 | 73 | 1014.0 |
| 20260508071845 | 49 | 229 | 3.5 | 9.6 | 0.00 | 0.00 | 0.00 | 72 | 1013.8 |
| 20260508071344 | 49 | 232 | 4.3 | 7.0 | 0.00 | 0.00 | 0.00 | 73 | 1014.1 |
| 20260508070841 | 49 | 205 | 5.2 | 8.7 | 0.00 | 0.00 | 0.00 | 73 | 1014.0 |
| 20260508070339 | 49 | 203 | 5.2 | 7.8 | 0.00 | 0.00 | 0.00 | 74 | 1014.0 |
| 20260508065837 | 49 | 218 | 7.0 | 7.8 | 0.00 | 0.00 | 0.00 | 74 | 1013.9 |
| 20260508065335 | 48 | 225 | 7.8 | 8.7 | 0.00 | 0.00 | 0.00 | 74 | 1014.1 |
| 20260508064833 | 48 | 219 | 6.1 | 7.8 | 0.00 | 0.00 | 0.00 | 74 | 1014.1 |
| 20260508064330 | 48 | 220 | 5.2 | 8.7 | 0.00 | 0.00 | 0.00 | 75 | 1014.1 |
| 20260508063827 | 48 | 209 | 5.2 | 7.8 | 0.00 | 0.00 | 0.00 | 74 | 1014.4 |
| 20260508063325 | 48 | 220 | 7.0 | 7.8 | 0.00 | 0.00 | 0.00 | 75 | 1014.2 |
| 20260508062822 | 48 | 219 | 6.1 | 8.7 | 0.00 | 0.00 | 0.00 | 75 | 1014.3 |
| 20260508062319 | 48 | 220 | 5.2 | 7.0 | 0.00 | 0.00 | 0.00 | 76 | 1014.2 |
| 20260508061816 | 47 | 217 | 5.2 | 7.8 | 0.00 | 0.00 | 0.00 | 77 | 1014.3 |
| 20260508061313 | 47 | 219 | 5.2 | 7.0 | 0.00 | 0.00 | 0.00 | 78 | 1014.3 |
| 20260508060810 | 48 | 216 | 6.1 | 7.0 | 0.00 | 0.00 | 0.00 | 78 | 1014.1 |
| 20260508060309 | 48 | 209 | 5.2 | 6.1 | 0.00 | 0.00 | 0.00 | 78 | 1014.3 |
| 20260508055808 | 48 | 221 | 5.2 | 6.1 | 0.00 | 0.00 | 0.00 | 77 | 1014.4 |
| 20260508055307 | 48 | 212 | 5.2 | 6.1 | 0.00 | 0.00 | 0.00 | 78 | 1014.2 |
| 20260508054802 | 48 | 226 | 3.5 | 5.2 | 0.00 | 0.00 | 0.00 | 78 | 1014.4 |
| 20260508054300 | 48 | 215 | 3.5 | 5.2 | 0.00 | 0.00 | 0.00 | 77 | 1014.4 |
| 20260508053757 | 47 | 221 | 4.3 | 7.0 | 0.00 | 0.00 | 0.00 | 79 | 1014.6 |
| 20260508053254 | 47 | 216 | 2.6 | 2.6 | 0.00 | 0.00 | 0.00 | 81 | 1014.5 |
| 20260508052751 | 47 | 218 | 2.6 | 3.5 | 0.00 | 0.00 | 0.00 | 81 | 1014.4 |
| 20260508052249 | 46 | 205 | 3.5 | 5.2 | 0.00 | 0.00 | 0.00 | 82 | 1014.6 |
| 20260508051744 | 47 | 222 | 1.7 | 2.6 | 0.00 | 0.00 | 0.00 | 81 | 1014.7 |
| 20260508051240 | 47 | 211 | 3.5 | 5.2 | 0.00 | 0.00 | 0.00 | 79 | 1014.4 |
| 20260508050737 | 47 | 202 | 3.5 | 3.5 | 0.00 | 0.00 | 0.00 | 80 | 1014.5 |
| 20260508050234 | 47 | 192 | 3.5 | 3.5 | 0.00 | 0.00 | 0.00 | 80 | 1014.4 |
| 20260508045729 | 47 | 215 | 2.6 | 2.6 | 0.00 | 0.00 | 0.00 | 80 | 1014.7 |
| 20260508045227 | 47 | 218 | 2.6 | 2.6 | 0.00 | 0.00 | 0.00 | 80 | 1014.4 |
| 20260508044725 | 47 | 286 | 2.6 | 2.6 | 0.00 | 0.00 | 0.00 | 80 | 1014.5 |
| 20260508044221 | 47 | 286 | 1.7 | 2.6 | 0.00 | 0.00 | 0.00 | 81 | 1014.5 |
| 20260508043717 | 47 | 286 | 1.7 | 1.7 | 0.00 | 0.00 | 0.00 | 81 | 1014.4 |
| 20260508043215 | 48 | 286 | 1.7 | 1.7 | 0.00 | 0.00 | 0.00 | 79 | 1014.6 |
| 20260508042711 | 48 | 287 | 0.0 | 0.0 | 0.00 | 0.00 | 0.00 | 78 | 1014.8 |
| 20260508042209 | 49 | 287 | 0.9 | 0.9 | 0.00 | 0.00 | 0.00 | 76 | 1014.6 |
| 20260508041705 | 49 | 288 | 0.9 | 1.7 | 0.00 | 0.00 | 0.00 | 76 | 1014.6 |
| 20260508041202 | 49 | 279 | 1.7 | 1.7 | 0.00 | 0.00 | 0.00 | 77 | 1014.6 |
| 20260508040659 | 49 | 283 | 0.9 | 1.7 | 0.00 | 0.00 | 0.00 | 76 | 1014.4 |
| 20260508040156 | 49 | 272 | 1.7 | 3.5 | 0.00 | 0.00 | 0.00 | 75 | 1014.6 |
| 20260508035653 | 49 | 254 | 1.7 | 2.6 | 0.00 | 0.00 | 0.00 | 76 | 1014.6 |
| 20260508035151 | 49 | 251 | 2.6 | 3.5 | 0.00 | 0.00 | 0.00 | 76 | 1014.7 |
| 20260508034647 | 49 | 277 | 3.5 | 5.2 | 0.00 | 0.00 | 0.00 | 77 | 1014.7 |